Current weather by "City, St" or "zip code"  
 

Current Conditions: PINE BLUFFS MUNI

NULL


84.2 F

Last Updated on Jul 17 2024, 11:35 AM MDT
Humidity: %
Wind Speed: 5.8 mph
Barometer 30.31 in
Dewpoint: F
Visibility: 10.00 mi
Precip: --
Heat Index: NA
Wind Chill: NA
Current conditions at:

PINE BLUFFS MUNI (K82V)

Lat: 41.15 Lon: 104.13

active severe weather and emergency alerts image weather storm and storm spotter reports image weather observation monitoring service image
Active
Alerts
Storm Reports Obs
Monitoring

Sign-up For Email & Text Message Weather Alert Notification Services



Advertise Here

Observation History for PINE BLUFFS MUNI


Time Wind
(mph)
Vis
(mi)
Weather Precip (in) Temperature (F) Relative
Humidity
Wind
Chill
(F)
Heat
Index
(F)
Pressure
Air Dwpt altimeter
(in)
sea level
(mb)
Rmks
11:35 AM MDT 5.8 10.00 NULL -- 84.2 % NA NA 30.31 1026.4
10:55 AM MDT 6.9 10.00 NULL -- 80.6 46.4 30% NA 79.7 30.31 1026.4
10:15 AM MDT 0.0 10.00 NULL -- 78.8 48.2 34% NA 77.9 30.32 1026.8
09:55 AM MDT 3.4 10.00 NULL -- 77.0 51.8 41% NA 76.3 30.32 1026.8
09:35 AM MDT 0.0 10.00 NULL -- 73.4 53.6 50% NA 72.9 30.32 1026.8
09:15 AM MDT 0.0 10.00 NULL -- 71.6 55.4 57% NA 71.1 30.33 1027.1
08:55 AM MDT NE 4.7 10.00 NULL -- 71.6 55.4 57% NA 71.1 30.33 1027.1
08:15 AM MDT 4.7 10.00 NULL -- 64.4 55.4 73% NA NA 30.33 1027.1
07:55 AM MDT 3.4 10.00 NULL -- 64.4 59.0 83% NA NA 30.33 1027.1
07:15 AM MDT 3.4 10.00 NULL -- 59.0 57.2 94% NA NA 30.31 1026.4
06:35 AM MDT 0.0 10.00 NULL -- 55.4 55.4 100% NA NA 30.31 1026.4
06:15 AM MDT 0.0 10.00 NULL -- 53.6 53.6 100% NA NA 30.30 1026.1
05:55 AM MDT W 4.7 10.00 NULL -- 53.6 53.6 100% NA NA 30.29 1025.7
05:35 AM MDT 10.00 NULL -- NULL % NA NA M
05:15 AM MDT W 4.6 10.00 Thunderstorms -- 53.6 53.6 100% NA NA 30.27 1025.1
04:55 AM MDT 0.0 10.00 NULL -- 51.8 51.8 100% NA NA 30.27 1025.1
04:35 AM MDT 0.0 10.00 NULL -- 53.6 51.8 94% NA NA 30.26 1024.7
03:55 AM MDT W 4.7 10.00 NULL -- 53.6 53.6 100% NA NA 30.26 1024.7
03:35 AM MDT NW 4.7 10.00 NULL -- 53.6 53.6 100% NA NA 30.26 1024.7
02:35 AM MDT 6.9 10.00 NULL -- 55.4 50.0 82% NA NA 30.25 1024.4
02:15 AM MDT 3.4 10.00 NULL -- 57.2 51.8 82% NA NA 30.25 1024.4
01:55 AM MDT 4.7 10.00 NULL -- 55.4 50.0 82% NA NA 30.25 1024.1
01:15 AM MDT 0.0 10.00 NULL -- 60.8 50.0 68% NA NA 30.25 1024.4
12:55 AM MDT 0.0 10.00 NULL -- 62.6 51.8 68% NA NA 30.25 1024.4

Regional Weather Observation


PINE BLUFFS MUNI (K82V)

NULL
84.2 F

GUNBARREL (KGUN)

NULL
78.8 F

(K1BW)


F

CHEYENNE (KCYS)

NULL
79.0 F

BORDEAUX (KBRX)

NULL
82.4 F